143P/Kowal-Mrkos (2009)

Japanese version
Home page
Updated on October 19, 2013

---------------------------------------------------------------------

* Profile

* Pictures

* Orbital Elements

Epoch 2009 June 18.0 TT = JDT 2455000.5
T 2009 June 12.19750 TT                                 MPC
q   2.5381995            (2000.0)            P               Q
n   0.11051270     Peri.  320.76010     -0.89588149     +0.43803242
a   4.3005887      Node   245.36865     -0.38428614     -0.84791957
e   0.4098019      Incl.    4.68992     -0.22298099     -0.29859674
P   8.92
From 369 observations 1984 Apr. 23-2011 Sept. 20, mean residual 0".5.

* Finding Charts

* Magnitudes Graph

        H = 13.6  G = 0.15

---------------------------------------------------------------------

The orbital elements are published on M.P.E.C. 2012-C24.
The charts are made with StellaNavigator Ver.2.0 for Windows (AstroArts / ASCII).
The magnitudes graphs are made with Comet for Windows.

---------------------------------------------------------------------

Copyright(C) Seiichi Yoshida (comet@aerith.net). All rights reserved.